Flag for U.S.A. Weather past 2 weeks in Owensboro, Kentucky, U.S.A.

Now
36 °F

Overcast.


Feels Like: 29 °F
Forecast: 19 / 36 °F
Wind: 9 mph from Southeast

Location: Owensboro / Daviess

Current Time: Feb 28, 2015 at 5:21:43 PM

Latest Report: Feb 28, 2015 at 4:56 PM


Visibility: 10 mi

Pressure: 30.50 "Hg

Humidity: 46%

Dew point: 17 °F

Location of OwensboroLocation

Historic Weather in Owensboro — Graph

°F

Owensboro temperature yesterday

Maximum temperature yesterday: 24 °F (at 2:56 PM)
Minimum temperature yesterday: 12 °F (at 5:56 AM)
Average temperature yesterday: 19 °F

Past Weeks' High & Low Weather Summary

 TemperatureHumidityPressure
High37 °F (Feb 25, 1:56 PM)100% (Feb 21, 2:56 AM)30.69 "Hg (Feb 21, 2:56 AM)
Low-8 °F (Feb 17, 6:56 AM)36% (Feb 13, 3:56 PM)29.87 "Hg (Feb 25, 5:56 PM)
Average20 °F68%30.27 "Hg
* Reported Feb 13 3:56 PM — Feb 28 3:56 PM, Owensboro, Weather by CustomWeather, © 2015

Note: Actual official high and low records may vary slightly from our data, if they occured in-between our weather recording intervals... More about our weather records

Advertising

Owensboro weather history for previous 24 hours

 ConditionsComfort  
Time TempWeatherWind HumidityBarometerVisibility
3:56 PM
Sat, Feb 28
37 °FOvercast.8 mph39%30.52 "Hg10 mi
2:56 PM37 °FOvercast.10 mph39%30.51 "Hg10 mi
1:56 PM35 °FPartly sunny.9 mph44%30.54 "Hg10 mi
12:56 PM33 °FPartly sunny.7 mph48%30.59 "Hg10 mi
11:56 AM31 °FPartly sunny.6 mph49%30.64 "Hg10 mi
10:56 AM28 °FBroken clouds.7 mph51%30.66 "Hg10 mi
9:56 AM25 °FBroken clouds.7 mph55%30.68 "Hg10 mi
8:56 AM24 °FScattered clouds.7 mph55%30.69 "Hg10 mi
7:56 AM22 °FPassing clouds.9 mph55%30.69 "Hg10 mi
6:56 AM21 °FSunny.9 mph57%30.68 "Hg10 mi
5:56 AM21 °FScattered clouds.8 mph60%30.68 "Hg10 mi
4:56 AM20 °FPassing clouds.6 mph65%30.67 "Hg10 mi
3:56 AM20 °FPassing clouds.9 mph62%30.64 "Hg10 mi
2:56 AM20 °FClear.7 mph65%30.65 "Hg10 mi
1:56 AM19 °FPassing clouds.7 mph68%30.66 "Hg10 mi
12:56 AM19 °FClear.7 mph65%30.65 "Hg10 mi
11:56 PM
Fri, Feb 27
19 °FClear.8 mph62%30.65 "Hg10 mi
10:56 PM19 °FClear.7 mph62%30.67 "Hg10 mi
9:56 PM20 °FClear.No wind59%30.68 "Hg10 mi
8:56 PM21 °FClear.8 mph55%30.68 "Hg10 mi
7:56 PM22 °FClear.7 mph57%30.67 "Hg10 mi
6:56 PM23 °FClear.6 mph55%30.67 "Hg10 mi
5:56 PM23 °FClear.5 mph55%30.65 "Hg10 mi
Weather by CustomWeather, © 2015

See weather overviewHow to use our weather pages